TimeMST,TemperatureF,Dew PointF,Humidity,Sea Level PressureIn,VisibilityMPH,Wind Direction,Wind SpeedMPH,Gust SpeedMPH,PrecipitationIn,Events,Conditions,WindDirDegrees,DateUTC
12:53 AM,39.0,21.0,49,29.83,10.0,West,10.4,18.4,N/A,,Overcast,270,2013-02-10 07:53:00
1:53 AM,39.0,19.9,46,29.81,10.0,West,8.1,20.7,N/A,,Overcast,280,2013-02-10 08:53:00
2:53 AM,37.9,21.0,51,29.82,10.0,West,9.2,-,N/A,,Overcast,270,2013-02-10 09:53:00
3:53 AM,37.0,21.0,52,29.81,10.0,West,5.8,-,N/A,,Overcast,270,2013-02-10 10:53:00
4:53 AM,37.0,21.9,54,29.81,10.0,WNW,4.6,-,N/A,,Overcast,300,2013-02-10 11:53:00
5:53 AM,36.0,21.0,55,29.83,10.0,West,9.2,-,N/A,,Mostly Cloudy,280,2013-02-10 12:53:00
6:45 AM,35.6,21.2,56,29.84,5.0,West,10.4,-,0.00,Snow,Light Snow,280,2013-02-10 13:45:00
6:53 AM,36.0,21.0,55,29.83,9.0,West,9.2,-,0.00,,Overcast,280,2013-02-10 13:53:00
7:53 AM,35.1,19.0,52,29.84,10.0,WNW,8.1,-,N/A,,Overcast,290,2013-02-10 14:53:00
8:48 AM,32.0,24.8,75,29.87,1.8,West,11.5,24.2,0.00,Snow,Light Snow,270,2013-02-10 15:48:00
8:53 AM,30.9,25.0,79,29.87,0.8,West,11.5,20.7,0.00,Snow,Light Snow,280,2013-02-10 15:53:00
9:07 AM,30.2,26.6,86,29.87,0.5,West,8.1,-,0.01,Fog-Snow,Snow,270,2013-02-10 16:07:00
9:17 AM,30.2,26.6,86,29.87,0.5,West,8.1,-,0.02,Fog-Snow,Snow,260,2013-02-10 16:17:00
9:53 AM,30.0,26.1,85,29.89,0.8,WNW,6.9,-,0.03,Snow,Light Snow,290,2013-02-10 16:53:00
10:15 AM,30.2,26.6,86,29.88,0.2,WNW,4.6,-,0.02,Fog-Snow,Heavy Snow,290,2013-02-10 17:15:00
10:24 AM,28.4,26.6,93,29.88,0.2,WNW,8.1,16.1,0.04,Fog-Snow,Heavy Snow,300,2013-02-10 17:24:00
10:53 AM,28.9,26.1,89,29.90,0.2,WNW,6.9,-,0.06,Fog-Snow,Snow,300,2013-02-10 17:53:00
11:07 AM,30.2,26.6,86,29.89,1.0,NE,4.6,-,0.01,Snow,Light Snow,40,2013-02-10 18:07:00
11:12 AM,30.2,26.6,86,29.89,1.8,NE,5.8,-,0.01,Snow,Light Snow,50,2013-02-10 18:12:00
11:15 AM,30.2,26.6,86,29.89,3.0,ENE,5.8,-,0.01,Snow,Light Snow,60,2013-02-10 18:15:00
11:19 AM,30.2,26.6,86,29.89,2.5,ENE,5.8,-,0.01,Snow,Light Snow,70,2013-02-10 18:19:00
11:22 AM,30.2,26.6,86,29.89,1.2,East,5.8,-,0.01,Snow,Light Snow,80,2013-02-10 18:22:00
11:30 AM,28.4,26.6,93,29.89,0.8,East,6.9,-,0.01,Snow,Light Snow,100,2013-02-10 18:30:00
11:34 AM,30.2,26.6,86,29.88,2.0,East,5.8,-,0.01,Snow,Light Snow,90,2013-02-10 18:34:00
11:41 AM,30.2,26.6,86,29.88,5.0,ESE,5.8,-,0.01,Snow,Light Snow,120,2013-02-10 18:41:00
11:53 AM,30.0,27.0,88,29.89,2.0,ESE,4.6,-,0.01,Snow,Light Snow,110,2013-02-10 18:53:00
12:01 PM,30.2,26.6,86,29.88,1.8,ESE,4.6,-,0.00,Snow,Light Snow,110,2013-02-10 19:01:00
12:09 PM,30.2,26.6,86,29.88,1.8,ESE,6.9,-,0.00,Snow,Light Snow,110,2013-02-10 19:09:00
12:44 PM,30.2,26.6,86,29.86,3.0,East,5.8,-,0.01,Snow,Light Snow,100,2013-02-10 19:44:00
12:53 PM,30.0,27.0,88,29.87,4.0,ESE,5.8,-,0.01,Snow,Light Snow,110,2013-02-10 19:53:00
1:17 PM,30.2,26.6,86,29.85,10.0,ESE,5.8,-,0.00,,Overcast,120,2013-02-10 20:17:00
1:40 PM,30.2,26.6,86,29.84,10.0,East,5.8,-,0.00,,Overcast,100,2013-02-10 20:40:00
1:53 PM,30.9,28.0,89,29.85,10.0,SE,6.9,-,0.00,,Overcast,130,2013-02-10 20:53:00
2:11 PM,32.0,26.6,80,29.84,10.0,SE,8.1,-,N/A,,Mostly Cloudy,130,2013-02-10 21:11:00
2:53 PM,33.1,27.0,78,29.83,10.0,ESE,6.9,-,N/A,,Mostly Cloudy,120,2013-02-10 21:53:00
3:53 PM,35.1,26.1,70,29.84,10.0,SE,5.8,-,N/A,,Mostly Cloudy,140,2013-02-10 22:53:00
4:53 PM,35.1,26.1,70,29.85,10.0,SE,8.1,-,N/A,,Mostly Cloudy,140,2013-02-10 23:53:00
5:53 PM,33.1,25.0,72,29.87,10.0,Calm,Calm,-,0.00,,Overcast,0,2013-02-11 00:53:00
6:14 PM,32.0,28.4,87,29.87,2.5,NNW,6.9,-,0.00,Snow,Light Snow,330,2013-02-11 01:14:00
6:22 PM,32.0,28.4,87,29.87,1.2,NW,5.8,-,0.00,Snow,Light Snow,320,2013-02-11 01:22:00
6:32 PM,30.2,28.4,93,29.87,0.8,Calm,Calm,-,0.00,Snow,Light Snow,0,2013-02-11 01:32:00
6:39 PM,30.2,28.4,93,29.87,2.5,Calm,Calm,-,0.01,Snow,Light Snow,0,2013-02-11 01:39:00
6:44 PM,30.2,28.4,93,29.87,6.0,SSE,4.6,-,0.01,Snow,Light Snow,150,2013-02-11 01:44:00
6:53 PM,30.9,28.0,89,29.89,10.0,SSE,3.5,-,0.01,,Overcast,150,2013-02-11 01:53:00
7:53 PM,32.0,27.0,82,29.90,10.0,SSW,5.8,-,N/A,,Overcast,210,2013-02-11 02:53:00
8:53 PM,33.1,26.1,75,29.94,10.0,WNW,3.5,-,N/A,,Overcast,290,2013-02-11 03:53:00
9:53 PM,30.9,26.1,82,29.95,10.0,Calm,Calm,-,N/A,,Partly Cloudy,0,2013-02-11 04:53:00
10:53 PM,30.9,24.1,76,29.96,10.0,Calm,Calm,-,N/A,,Clear,0,2013-02-11 05:53:00
11:53 PM,32.0,19.9,61,29.96,8.0,WNW,4.6,-,N/A,,Overcast,290,2013-02-11 06:53:00